SCP
0 0 0 0 0 0 0 0 0 0 0 0 0 0 0 0 0 0 0 0 0 0 0 0 0 0 0 0 0 0 0 0
0 0 0 0 0 0 0 0 0 0 0 0 0 0 0 0 0 0 0 0 0 0 0 0 0 0 0 0 0 0 0 0
0 0 0 0 0 0 0 0 0 0 0 0 0 0 0 0 0 0 0 0 0 0 0 0 0 -0 -0 -0 -0 -0 0 0
0 0 0 0 0 0 0 0 0 0 0 0 0 0 0 0 0 0 0 0 0 0 -0 -0 -0 -0 -0 -0 -0 -0 -0 -0
0 0 0 0 0 0 0 0 0 0 0 0 0 0 0 0 0 0 0 0 0 0 0 -0 -0 -0 -0 -0 -0 -0 -0 0
0 0 0 0 0 0 0 0 0 0 0 0 0 0 0 0 0 0 0 0 0 0 0 -0 -0 -0 -0 -0 -0 -0 -0 -0
0 0 0 0 0 0 0 0 0 0 0 0 0 0 0 0 0 0 0 0 0 0 0 0 0 0 0 0 0 0 0 0
0 0 0 0 0 0 0 0 0 0 0 0 0 0 0 0 0 0 0 0 0 0 0 0 0 0 0 0 0 0 0 0
0 0 0 0 0 0 0 0 0 0 0 0 0 0 0 0 0 0 0 0 0 0 0 0 0 0 0 0 0 0 0 0
0 0 0 0 0 0 0 0 0 0 0 0 0 0 0 0 0 0 0 0 0 0 0 0 0 0 -0 0 0 0 0 0
0 0 0 0 0 0 0 0 0 0 0 0 0 0 0 0 0 0 0 0 0 0 0 0 0 -0 -0 0 0 0 0 0
0 0 0 0 0 0 0 0 0 0 0 0 0 0 0 0 0 0 0 0 0 0 0 0 0 0 -0 0 0 0 0 0
0 0 0 0 0 0 0 0 0 0 0 0 0 0 0 0 0 0 0 0 0 0 0 0 0 0 0 0 -0 0 0 0
0 0 0 0 0 0 0 0 0 0 0 0 0 0 0 0 0 0 0 0 0 0 0 0 0 0 -0 -0 -0 0 0 0
0 0 0 0 0 0 0 0 0 0 0 0 0 0 0 0 0 0 0 0 0 0 0 0 -0 0 0 0 0 0 0 0
0 0 0 0 0 0 0 0 0 0 0 0 0 0 0 0 0 0 0 0 0 0 0 -0 -0 -0 -0 -0 0 0 0 0
0 0 0 0 0 0 0 0 0 0 0 0 0 0 0 0 0 0 0 0 0 0 -0 -0 -0 -0 -0 -0 -0 0 0 0
0 0 0 0 0 0 0 0 0 0 0 0 0 0 0 0 0 0 0 0 0 0 0 -0 -0 0 -0 0 0 0 0 0
0 0 0 0 0 0 0 0 0 0 0 0 0 0 0 0 0 0 0 0 0 0 0 -0 0 0 0 0 0 0 0 0
0 0 0 0 0 0 0 0 0 0 0 0 0 0 0 0 0 0 0 0 -0 0 0 0 0 0 0 0 0 0 0 0
Wind_Speed_500mb
26 23 19 17 13 8 7 5 7 6 4 4 5 8 12 15 20 24 27 30 34 38 41 44 45 48 51 53 54 57 57 58
31 29 25 22 17 12 9 8 6 3 2 6 9 13 18 23 29 32 35 39 41 45 48 52 56 61 66 68 71 73 72 71
35 36 35 28 21 15 14 11 8 5 6 11 16 22 27 32 37 41 43 45 49 53 57 61 65 70 76 81 83 87 89 90
44 47 42 34 27 22 20 17 12 9 11 18 26 32 37 42 47 50 53 55 58 63 69 77 85 91 93 93 93 93 94 95
50 51 46 39 31 25 24 23 19 14 19 27 33 39 44 48 51 54 56 58 62 68 77 84 89 94 98 98 99 101 102 101
55 56 49 42 34 28 30 30 28 26 29 34 37 42 48 52 57 59 60 64 72 79 82 88 95 97 98 99 103 107 111 111
42 48 46 40 34 32 33 35 38 39 39 42 45 49 53 58 63 64 67 73 80 82 89 94 94 94 97 100 102 106 109 113
30 40 40 39 38 41 42 46 49 47 48 52 54 55 57 62 64 66 74 77 81 85 91 93 94 96 99 99 98 101 102 102
22 27 33 40 51 54 57 58 58 56 56 57 56 59 63 65 66 73 75 79 84 88 89 91 93 96 96 92 90 93 92 89
21 27 37 45 52 62 66 67 66 63 61 59 57 60 63 63 69 71 75 81 84 86 89 91 94 91 89 81 82 85 84 77
36 41 46 49 50 51 56 62 64 62 59 56 58 59 59 64 69 70 75 80 83 85 85 88 90 83 78 71 72 73 77 77
39 44 45 50 52 54 57 62 61 58 56 56 58 59 61 66 65 68 73 78 82 84 86 84 80 76 71 65 58 66 74 80
45 46 47 51 57 60 62 59 57 54 55 55 55 56 60 64 65 66 69 75 80 83 86 82 76 69 69 61 55 60 71 79
48 50 52 56 63 64 60 57 54 55 53 54 54 54 55 59 60 64 65 71 78 79 82 84 81 82 79 67 60 64 72 80
51 58 61 59 64 63 59 57 56 55 53 54 54 54 53 55 57 61 63 69 73 74 78 83 84 77 76 73 83 80 79 81
56 59 61 62 63 60 56 56 56 56 54 54 54 54 55 55 56 57 58 62 65 65 66 74 77 72 66 70 74 74 75 78
54 58 62 62 59 56 56 58 57 55 53 53 54 53 53 57 59 49 53 55 53 51 48 54 56 57 61 62 65 67 65 65
52 53 56 56 55 55 57 59 56 55 52 52 52 52 54 56 59 64 48 44 46 46 49 46 49 52 57 59 59 60 59 52
50 52 53 54 52 54 57 53 53 53 52 52 49 49 51 52 53 54 56 54 46 40 49 46 48 47 52 48 53 50 45 50
53 54 54 54 48 54 53 51 49 49 48 48 47 47 48 48 48 47 47 47 46 43 38 41 43 47 48 47 51 55 57 57
Wind_Direction_500mb
208 209 207 208 214 226 220 179 157 148 121 56 25 12 2 354 342 343 338 335 333 331 329 328 329 327 324 320 318 314 312 311
212 218 221 220 228 231 215 194 181 159 27 5 351 343 338 332 329 327 328 327 326 324 323 322 322 320 318 315 313 310 307 304
226 230 231 230 232 229 226 222 220 249 295 313 321 323 324 324 325 325 326 326 324 322 320 319 318 316 314 312 309 306 304 303
234 234 233 233 231 232 231 227 235 264 305 318 318 316 317 318 319 320 320 319 318 319 319 320 318 317 314 312 308 304 302 300
242 239 237 235 230 233 236 237 245 271 294 300 304 309 313 314 315 314 312 312 313 314 314 314 314 313 312 312 309 307 303 300
248 240 231 228 231 239 243 245 250 263 278 287 296 304 306 307 308 308 307 308 310 311 310 311 310 310 310 308 306 304 302 300
242 234 231 234 243 250 252 252 253 259 268 279 288 295 299 303 306 305 306 308 309 310 310 310 309 309 308 306 304 301 298 296
242 235 240 245 255 253 257 253 253 256 264 273 283 291 297 302 302 303 305 307 309 310 310 310 311 311 309 307 304 300 298 297
246 245 249 253 253 250 252 252 252 255 263 270 283 293 297 298 300 303 306 309 311 312 311 312 313 313 312 311 306 302 300 299
242 262 269 259 253 252 253 253 252 255 261 270 283 289 292 296 301 305 308 311 312 312 313 315 315 316 315 314 307 302 300 301
273 274 269 267 269 264 256 250 249 254 265 277 285 288 293 301 305 308 311 312 312 313 315 316 317 319 319 315 307 304 306 306
271 280 274 268 266 257 248 245 250 261 271 279 285 290 298 302 304 310 312 313 313 313 315 317 320 322 320 315 306 304 307 308
266 272 268 264 256 247 245 250 258 268 275 280 282 288 296 301 307 310 312 312 314 315 316 319 322 324 322 319 307 304 299 299
263 265 262 260 250 247 251 257 268 276 278 280 283 293 298 302 307 310 314 314 314 316 317 320 327 328 331 323 312 308 303 302
264 261 254 255 250 251 256 266 272 277 280 281 287 295 299 304 309 313 316 314 315 317 322 325 325 321 319 325 322 318 313 309
267 263 253 251 251 253 262 271 275 279 280 283 291 297 302 307 311 315 315 316 317 318 316 312 312 319 317 313 311 310 310 308
266 253 249 250 252 259 268 273 276 278 280 286 293 299 305 308 310 312 312 313 315 313 308 310 307 314 314 314 315 312 311 305
261 253 251 253 259 263 268 273 275 277 281 287 294 300 304 307 310 312 311 312 316 321 326 322 318 320 322 319 317 309 316 315
258 257 259 262 264 267 271 273 274 278 284 289 294 298 301 303 307 310 315 319 318 320 329 337 335 335 332 334 329 329 331 335
262 263 264 266 266 269 271 273 274 278 283 287 291 295 298 300 303 308 311 314 319 322 322 329 334 352 344 348 350 351 349 345
Wind_Speed_850mb
26 23 19 17 13 8 7 5 7 6 4 4 5 8 12 15 20 24 27 30 34 38 41 44 45 48 51 53 54 57 57 58
31 29 25 22 17 12 9 8 6 3 2 6 9 13 18 23 29 32 35 39 41 45 48 52 56 61 66 68 71 73 72 71
35 36 35 28 21 15 14 11 8 5 6 11 16 22 27 32 37 41 43 45 49 53 57 61 65 70 76 81 83 87 89 90
44 47 42 34 27 22 20 17 12 9 11 18 26 32 37 42 47 50 53 55 58 63 69 77 85 91 93 93 93 93 94 95
50 51 46 39 31 25 24 23 19 14 19 27 33 39 44 48 51 54 56 58 62 68 77 84 89 94 98 98 99 101 102 101
55 56 49 42 34 28 30 30 28 26 29 34 37 42 48 52 57 59 60 64 72 79 82 88 95 97 98 99 103 107 111 111
42 48 46 40 34 32 33 35 38 39 39 42 45 49 53 58 63 64 67 73 80 82 89 94 94 94 97 100 102 106 109 113
30 40 40 39 38 41 42 46 49 47 48 52 54 55 57 62 64 66 74 77 81 85 91 93 94 96 99 99 98 101 102 102
22 27 33 40 51 54 57 58 58 56 56 57 56 59 63 65 66 73 75 79 84 88 89 91 93 96 96 92 90 93 92 89
21 27 37 45 52 62 66 67 66 63 61 59 57 60 63 63 69 71 75 81 84 86 89 91 94 91 89 81 82 85 84 77
36 41 46 49 50 51 56 62 64 62 59 56 58 59 59 64 69 70 75 80 83 85 85 88 90 83 78 71 72 73 77 77
39 44 45 50 52 54 57 62 61 58 56 56 58 59 61 66 65 68 73 78 82 84 86 84 80 76 71 65 58 66 74 80
45 46 47 51 57 60 62 59 57 54 55 55 55 56 60 64 65 66 69 75 80 83 86 82 76 69 69 61 55 60 71 79
48 50 52 56 63 64 60 57 54 55 53 54 54 54 55 59 60 64 65 71 78 79 82 84 81 82 79 67 60 64 72 80
51 58 61 59 64 63 59 57 56 55 53 54 54 54 53 55 57 61 63 69 73 74 78 83 84 77 76 73 83 80 79 81
56 59 61 62 63 60 56 56 56 56 54 54 54 54 55 55 56 57 58 62 65 65 66 74 77 72 66 70 74 74 75 78
54 58 62 62 59 56 56 58 57 55 53 53 54 53 53 57 59 49 53 55 53 51 48 54 56 57 61 62 65 67 65 65
52 53 56 56 55 55 57 59 56 55 52 52 52 52 54 56 59 64 48 44 46 46 49 46 49 52 57 59 59 60 59 52
50 52 53 54 52 54 57 53 53 53 52 52 49 49 51 52 53 54 56 54 46 40 49 46 48 47 52 48 53 50 45 50
53 54 54 54 48 54 53 51 49 49 48 48 47 47 48 48 48 47 47 47 46 43 38 41 43 47 48 47 51 55 57 57
Wind_Direction_850mb
208 209 207 208 214 226 220 179 157 148 121 56 25 12 2 354 342 343 338 335 333 331 329 328 329 327 324 320 318 314 312 311
212 218 221 220 228 231 215 194 181 159 27 5 351 343 338 332 329 327 328 327 326 324 323 322 322 320 318 315 313 310 307 304
226 230 231 230 232 229 226 222 220 249 295 313 321 323 324 324 325 325 326 326 324 322 320 319 318 316 314 312 309 306 304 303
234 234 233 233 231 232 231 227 235 264 305 318 318 316 317 318 319 320 320 319 318 319 319 320 318 317 314 312 308 304 302 300
242 239 237 235 230 233 236 237 245 271 294 300 304 309 313 314 315 314 312 312 313 314 314 314 314 313 312 312 309 307 303 300
248 240 231 228 231 239 243 245 250 263 278 287 296 304 306 307 308 308 307 308 310 311 310 311 310 310 310 308 306 304 302 300
242 234 231 234 243 250 252 252 253 259 268 279 288 295 299 303 306 305 306 308 309 310 310 310 309 309 308 306 304 301 298 296
242 235 240 245 255 253 257 253 253 256 264 273 283 291 297 302 302 303 305 307 309 310 310 310 311 311 309 307 304 300 298 297
246 245 249 253 253 250 252 252 252 255 263 270 283 293 297 298 300 303 306 309 311 312 311 312 313 313 312 311 306 302 300 299
242 262 269 259 253 252 253 253 252 255 261 270 283 289 292 296 301 305 308 311 312 312 313 315 315 316 315 314 307 302 300 301
273 274 269 267 269 264 256 250 249 254 265 277 285 288 293 301 305 308 311 312 312 313 315 316 317 319 319 315 307 304 306 306
271 280 274 268 266 257 248 245 250 261 271 279 285 290 298 302 304 310 312 313 313 313 315 317 320 322 320 315 306 304 307 308
266 272 268 264 256 247 245 250 258 268 275 280 282 288 296 301 307 310 312 312 314 315 316 319 322 324 322 319 307 304 299 299
263 265 262 260 250 247 251 257 268 276 278 280 283 293 298 302 307 310 314 314 314 316 317 320 327 328 331 323 312 308 303 302
264 261 254 255 250 251 256 266 272 277 280 281 287 295 299 304 309 313 316 314 315 317 322 325 325 321 319 325 322 318 313 309
267 263 253 251 251 253 262 271 275 279 280 283 291 297 302 307 311 315 315 316 317 318 316 312 312 319 317 313 311 310 310 308
266 253 249 250 252 259 268 273 276 278 280 286 293 299 305 308 310 312 312 313 315 313 308 310 307 314 314 314 315 312 311 305
261 253 251 253 259 263 268 273 275 277 281 287 294 300 304 307 310 312 311 312 316 321 326 322 318 320 322 319 317 309 316 315
258 257 259 262 264 267 271 273 274 278 284 289 294 298 301 303 307 310 315 319 318 320 329 337 335 335 332 334 329 329 331 335
262 263 264 266 266 269 271 273 274 278 283 287 291 295 298 300 303 308 311 314 319 322 322 329 334 352 344 348 350 351 349 345